Weather History for KCPS - November, 2013

Change the Weather History Date:

Wednesday, November 27, 2013

  Actual Average Record
Temperature  
Mean Temperature 23 °F -  
Max Temperature 28 °F 47 °F 71 °F (1998)
Min Temperature 18 °F 33 °F 14 °F (1955)
Degree Days  
Heating Degree Days 42    
Moisture  
Dew Point 8 °F    
Average Humidity 55    
Maximum Humidity 71    
Minimum Humidity 40    
Precipitation  
Precipitation 0.00 in - - ()
Sea Level Pressure  
Sea Level Pressure 30.34 in    
Wind  
Wind Speed 14 mph (NW)    
Max Wind Speed 22 mph    
Max Gust Speed 26 mph    
Visibility 10 miles    
Events      
Averages and records for this station are not official NWS values.
T = Trace of Precipitation, MM = Missing Value Source: NWS Daily Summary

Daily Weather History Graph

Daily Weather History Graph

Search for Another Location

Airport or City:

Trip Planner

Search our weather history database for the weather conditions in past years. The results will help you decide how hot, cold, wet, or windy it might be!

Date:

Astronomy

Nov. 27, 2013 Rise Set
Actual Time 6:55 AM CST 4:40 PM CST
Civil Twilight 6:26 AM CST 5:09 PM CST
Nautical Twilight 5:53 AM CST 5:42 PM CST
Astronomical Twilight 5:21 AM CST 6:14 PM CST
Moon 1:01 AM CST (11/27) 1:14 PM CST (11/27)
Length of Visible Light 10h 43m
Length of Day
9h 45m
Waning Crescent, 31% of the Moon is Illuminated
Nov 27
Waning Crescent
Dec 2
New
Dec 9
First Quarter
Dec 17
Full
Dec 25
Last Quarter

Hourly Weather History & Observations

Time (CST) Temp. Windchill Dew Point Humidity Pressure Visibility Wind Dir Wind Speed Gust Speed Precip Events Conditions
12:53 AM 23.0 °F 9.2 °F 9.0 °F 55% 30.27 in 10.0 mi NNW 17.3 mph - N/A   Partly Cloudy
1:53 AM 21.9 °F 6.2 °F 8.1 °F 55% 30.28 in 10.0 mi NNW 21.9 mph 25.3 mph N/A   Clear
2:53 AM 21.0 °F 5.7 °F 8.1 °F 57% 30.29 in 10.0 mi NNW 19.6 mph 24.2 mph N/A   Clear
3:53 AM 19.9 °F 5.2 °F 8.1 °F 60% 30.30 in 10.0 mi NNW 17.3 mph 24.2 mph N/A   Clear
4:53 AM 19.9 °F 3.5 °F 7.0 °F 57% 30.31 in 10.0 mi NNW 21.9 mph 26.5 mph N/A   Clear
5:53 AM 19.0 °F 7.5 °F 7.0 °F 59% 30.33 in 10.0 mi North 10.4 mph - N/A   Clear
6:53 AM 18.0 °F 3.6 °F 7.0 °F 62% 30.35 in 10.0 mi NNW 15.0 mph - N/A   Clear
7:53 AM 19.0 °F 6.1 °F 6.1 °F 57% 30.36 in 10.0 mi NNW 12.7 mph - N/A   Clear
8:53 AM 21.0 °F 6.2 °F 6.1 °F 53% 30.39 in 10.0 mi NNW 18.4 mph - N/A   Clear
9:53 AM 21.9 °F 7.8 °F 6.1 °F 51% 30.40 in 10.0 mi NNW 17.3 mph - N/A   Clear
10:53 AM 24.1 °F 12.5 °F 7.0 °F 48% 30.38 in 10.0 mi NW 12.7 mph - N/A   Clear
11:53 AM 26.1 °F 14.5 °F 7.0 °F 44% 30.36 in 10.0 mi NW 13.8 mph - N/A   Clear
12:53 PM 27.0 °F 16.1 °F 8.1 °F 45% 30.35 in 10.0 mi WNW 12.7 mph - N/A   Clear
1:53 PM 28.9 °F 17.3 °F 7.0 °F 40% 30.34 in 10.0 mi NW 16.1 mph 23.0 mph N/A   Clear
2:53 PM 28.9 °F 20.4 °F 7.0 °F 40% 30.34 in 10.0 mi NW 9.2 mph - N/A   Clear
3:53 PM 28.0 °F 20.0 °F 7.0 °F 41% 30.34 in 10.0 mi NW 8.1 mph - N/A   Clear
4:53 PM 26.1 °F 16.8 °F 8.1 °F 47% 30.35 in 10.0 mi NW 9.2 mph - N/A   Clear
5:53 PM 25.0 °F - 7.0 °F 46% 30.35 in 10.0 mi Calm Calm - N/A   Clear
6:53 PM 21.9 °F 17.2 °F 9.0 °F 58% 30.35 in 10.0 mi South 3.5 mph - N/A   Clear
7:53 PM 19.9 °F - 9.0 °F 62% 30.35 in 10.0 mi Calm Calm - N/A   Clear
8:53 PM 19.0 °F 13.9 °F 10.0 °F 68% 30.34 in 10.0 mi SSE 3.5 mph - N/A   Clear
9:53 PM 18.0 °F 11.1 °F 10.0 °F 71% 30.34 in 10.0 mi South 4.6 mph - N/A   Clear
10:53 PM 19.0 °F 13.9 °F 10.0 °F 68% 30.35 in 10.0 mi South 3.5 mph - N/A   Clear
11:53 PM 19.0 °F 12.3 °F 9.0 °F 65% 30.35 in 10.0 mi SSE 4.6 mph - N/A   Clear